Temp
70 72 71 70 57 52 47 55 61 65 68 72 75 72 72 70 72 64 73 78 77 76 77 78 79 79 79 79 79 79 79 79 79 79 79 79 79 79 79 78 79 79 80 81 81 81 81 81 80
70 74 70 61 50 43 49 59 61 66 71 76 77 75 73 70 77 73 73 77 78 79 77 77 79 79 79 79 78 78 78 78 78 79 79 79 78 78 78 78 79 80 80 81 81 81 81 80 80
71 72 63 55 46 46 50 63 66 68 75 74 74 78 76 73 77 75 76 78 77 78 77 77 79 79 79 79 78 78 78 78 78 79 79 78 78 78 78 78 79 80 80 81 81 81 80 80 79
68 65 59 49 47 54 61 69 66 70 74 75 75 74 78 80 79 78 78 78 77 78 77 78 78 78 79 79 78 78 78 78 78 78 78 78 78 78 77 78 78 79 80 81 80 79 79 79 79
62 56 47 41 48 56 66 72 69 69 74 71 74 72 72 76 78 77 77 78 75 77 76 77 78 78 79 79 79 78 78 78 78 78 78 78 77 77 77 78 78 79 80 80 79 79 78 78 78
55 53 41 42 48 59 65 70 73 72 74 75 73 72 71 76 75 76 77 76 76 75 77 76 78 78 78 78 78 78 78 77 78 78 78 78 77 77 77 77 78 78 79 79 79 78 77 77 77
52 46 41 43 49 57 63 70 68 72 75 73 74 69 71 73 77 78 76 75 75 76 77 77 77 77 78 78 77 77 77 77 77 77 77 77 77 77 77 77 77 77 77 77 77 77 77 77 77
53 50 41 45 50 54 63 68 70 72 75 81 79 69 68 72 78 77 75 73 73 75 77 77 76 75 75 76 77 77 77 77 77 77 77 77 77 77 77 76 76 77 77 77 77 77 77 77 77
55 43 37 44 50 52 61 62 71 74 75 77 77 75 79 78 77 73 71 71 73 73 72 75 75 74 74 75 76 77 78 77 77 77 77 75 74 75 76 76 76 77 77 77 77 77 76 76 77
50 40 45 53 55 55 60 61 67 68 68 73 75 78 75 77 75 72 70 70 71 72 72 73 74 73 73 77 74 74 75 76 75 75 75 74 73 73 75 75 76 76 77 77 76 76 76 77 72
46 43 52 54 59 61 59 62 67 64 63 71 72 75 76 73 72 72 72 73 72 73 74 73 74 73 73 74 72 72 73 74 74 74 73 73 73 73 74 72 73 73 75 73 74 73 73 71 70
44 53 57 57 62 60 56 63 64 65 69 76 78 74 75 73 70 70 71 72 72 72 73 73 73 74 73 73 73 72 73 74 75 75 74 73 72 71 71 71 71 71 71 71 70 70 70 69 69
47 54 56 60 61 58 62 63 62 66 73 78 77 78 72 73 71 71 72 73 73 72 74 74 74 73 73 72 73 72 73 75 77 76 77 76 72 71 72 71 71 71 71 71 70 69 69 68 69
54 55 58 58 56 54 57 59 62 68 73 73 73 72 73 72 73 70 72 72 71 75 73 75 73 73 73 73 72 72 73 74 74 73 75 76 74 72 71 71 72 71 72 72 71 70 70 69 69
56 50 51 55 59 55 59 55 60 69 74 72 72 75 76 76 75 74 74 73 72 72 75 73 73 72 72 72 72 72 72 73 74 75 75 75 74 72 71 70 70 72 71 71 70 70 70 68 69
50 49 40 54 55 58 60 49 62 68 71 69 69 74 75 75 74 74 75 73 72 70 70 71 75 70 69 69 72 72 73 72 73 73 73 74 74 73 71 70 70 72 72 71 70 70 68 68 68
44 40 42 49 56 57 58 51 63 69 69 67 72 73 75 75 79 81 73 68 67 68 68 70 71 70 70 70 70 72 72 71 72 72 72 73 73 74 72 71 71 71 70 69 70 69 68 70 69
41 41 45 46 53 55 53 55 64 70 66 68 71 72 73 75 78 78 72 69 66 65 66 66 67 68 69 68 69 71 71 71 70 70 70 71 72 73 72 72 72 72 71 71 69 69 68 70 71
50 47 46 52 58 53 51 52 59 61 60 59 65 68 69 69 69 68 68 68 67 65 65 66 66 64 66 65 65 65 65 66 68 70 72 72 71 71 71 71 71 71 70 70 71 70 69 68 69
50 46 46 53 56 53 51 52 55 56 60 60 63 64 63 61 64 64 64 64 66 64 64 65 65 65 64 63 63 62 63 63 66 66 69 71 71 71 70 69 69 69 70 70 70 69 68 69 70
49 46 47 50 54 53 49 47 48 56 58 61 59 61 62 62 61 61 63 61 61 62 63 63 63 63 63 63 62 61 60 61 61 62 64 67 69 70 69 69 68 68 68 68 69 69 68 67 69
45 54 54 52 47 41 48 38 46 50 52 55 56 56 59 61 61 61 61 60 61 61 62 63 63 64 65 64 64 63 62 61 61 60 61 63 65 66 67 67 67 67 68 68 68 69 69 68 67
51 56 52 49 43 40 45 40 45 47 48 50 52 54 54 56 58 59 61 61 61 61 61 62 62 62 63 62 62 62 60 60 60 60 61 60 61 63 66 66 65 64 66 67 68 68 68 68 67
58 51 47 42 39 35 40 41 41 46 49 49 51 54 56 57 59 60 61 61 61 61 60 59 59 56 57 58 58 57 56 56 57 57 57 58 59 61 63 64 64 64 64 66 67 67 68 67 67
51 43 32 32 32 33 42 39 44 48 54 54 52 54 56 57 56 58 59 59 59 57 56 58 55 53 54 54 54 54 54 54 55 55 55 55 57 59 61 61 61 62 64 65 65 66 66 66 66
47 45 33 29 29 33 42 36 45 52 54 56 56 55 55 55 55 55 56 56 55 54 53 53 53 52 53 53 53 53 54 54 54 55 55 55 56 58 60 61 61 62 63 64 64 64 65 65 65
47 41 46 35 34 31 35 42 50 53 52 54 54 55 54 52 54 55 52 51 51 51 51 52 53 53 54 54 53 53 53 53 52 52 52 54 55 59 59 59 59 60 61 61 61 61 62 63 64
52 53 38 35 28 27 34 37 40 46 49 52 51 50 53 52 50 49 50 50 51 51 51 52 52 53 53 52 51 53 52 52 51 50 51 51 53 55 56 56 57 58 59 60 59 60 62 62 63
49 44 41 39 33 27 25 35 47 49 49 49 52 50 48 46 47 48 49 50 51 51 51 51 51 51 50 51 50 50 51 51 52 50 49 50 50 52 53 54 55 56 57 58 58 59 60 61 61
47 44 41 33 34 33 31 35 53 53 53 50 48 48 46 47 47 48 49 50 50 50 50 50 50 50 50 50 50 50 49 50 50 50 51 50 49 51 51 52 53 55 55 56 57 58 60 60 60
MSLP
1011.34 1011.26 1011.22 1011.54 1013.01 1013.42 1012.68 1011.24 1009.86 1008.74 1007.62 1006.40 1006.06 1005.79 1005.83 1005.61 1006.03 1006.91 1006.42 1006.73 1006.78 1007.56 1008.05 1008.72 1009.10 1009.34 1009.71 1009.93 1010.11 1010.32 1010.57 1010.91 1011.29 1011.69 1012.13 1012.53 1013.02 1013.43 1013.82 1014.11 1014.41 1014.64 1014.81 1014.96 1015.09 1015.22 1015.34 1015.49 1015.62
1011.19 1011.17 1011.62 1012.61 1013.54 1013.77 1012.25 1010.50 1009.39 1008.12 1007.12 1006.23 1005.36 1005.22 1005.37 1005.51 1005.87 1006.41 1006.76 1006.96 1007.30 1007.49 1008.26 1008.61 1009.15 1009.44 1009.84 1010.04 1010.35 1010.67 1010.92 1011.24 1011.50 1011.90 1012.40 1012.76 1013.17 1013.52 1013.85 1014.17 1014.51 1014.76 1014.92 1015.06 1015.26 1015.47 1015.62 1015.68 1015.76
1011.09 1011.34 1012.57 1013.23 1013.67 1013.21 1011.74 1009.67 1008.65 1008.08 1007.18 1006.43 1005.74 1004.79 1004.93 1005.32 1005.80 1006.03 1006.32 1006.88 1007.54 1008.12 1008.49 1008.89 1009.37 1009.61 1010.00 1010.22 1010.48 1010.82 1011.19 1011.63 1011.87 1012.17 1012.67 1013.03 1013.36 1013.67 1013.97 1014.30 1014.61 1014.84 1015.01 1015.19 1015.39 1015.53 1015.70 1015.84 1015.91
1011.34 1012.29 1013.71 1013.67 1013.35 1011.93 1010.58 1008.97 1008.43 1007.83 1007.02 1006.25 1005.61 1005.38 1005.22 1005.28 1005.36 1005.73 1006.52 1007.20 1007.61 1008.31 1008.69 1008.89 1009.49 1009.73 1010.14 1010.34 1010.57 1010.81 1011.19 1011.70 1012.11 1012.34 1012.69 1013.18 1013.59 1013.94 1014.21 1014.46 1014.70 1014.89 1015.06 1015.22 1015.38 1015.58 1015.76 1015.90 1015.98
1012.04 1013.20 1014.19 1014.19 1012.94 1011.30 1010.02 1008.79 1008.35 1007.71 1007.10 1006.11 1005.67 1005.52 1005.69 1005.90 1005.85 1006.03 1006.76 1007.39 1007.53 1008.39 1008.86 1009.01 1009.41 1009.88 1009.93 1010.41 1010.69 1010.89 1011.21 1011.70 1012.12 1012.46 1012.78 1013.09 1013.52 1013.94 1014.25 1014.51 1014.72 1014.90 1015.06 1015.21 1015.39 1015.52 1015.62 1015.71 1015.84
1012.95 1013.84 1014.71 1014.19 1012.74 1010.84 1009.78 1008.89 1008.37 1007.73 1006.61 1005.82 1005.78 1006.06 1006.07 1006.36 1006.51 1006.68 1006.70 1007.24 1007.84 1008.27 1008.63 1009.14 1009.69 1009.81 1009.95 1010.27 1010.61 1010.98 1011.28 1011.63 1012.01 1012.40 1012.79 1013.14 1013.43 1013.74 1014.12 1014.47 1014.74 1014.94 1015.14 1015.30 1015.44 1015.55 1015.62 1015.69 1015.73
1013.18 1014.34 1014.28 1013.81 1012.56 1010.82 1009.62 1008.71 1008.04 1007.36 1006.26 1005.78 1006.17 1006.39 1006.43 1006.44 1006.51 1007.06 1007.44 1007.80 1008.20 1008.67 1008.89 1009.01 1009.56 1009.98 1010.08 1010.25 1010.60 1010.94 1011.31 1011.62 1011.96 1012.33 1012.63 1013.06 1013.49 1013.85 1014.06 1014.27 1014.54 1014.78 1015.04 1015.25 1015.48 1015.66 1015.75 1015.80 1015.88
1013.19 1014.08 1014.11 1013.57 1012.47 1010.75 1009.47 1008.75 1007.93 1007.33 1006.45 1005.82 1005.94 1006.42 1006.47 1006.34 1006.62 1007.17 1007.79 1008.25 1008.67 1009.00 1009.27 1009.49 1009.61 1009.88 1010.07 1010.21 1010.44 1010.77 1011.09 1011.44 1011.83 1012.23 1012.57 1012.90 1013.28 1013.68 1014.01 1014.26 1014.40 1014.61 1014.84 1015.07 1015.33 1015.55 1015.69 1015.78 1015.82
1012.97 1013.90 1014.05 1013.23 1012.36 1010.98 1009.81 1009.07 1007.77 1007.32 1006.87 1005.99 1006.34 1006.57 1006.09 1006.33 1007.12 1007.55 1008.08 1008.71 1008.99 1009.31 1009.45 1009.60 1009.82 1009.92 1010.03 1010.22 1010.43 1010.79 1011.05 1011.35 1011.74 1012.11 1012.54 1013.03 1013.37 1013.67 1013.93 1014.18 1014.50 1014.69 1014.88 1015.07 1015.24 1015.42 1015.62 1015.68 1015.70
1013.05 1013.49 1013.11 1012.57 1011.68 1010.90 1010.04 1009.31 1008.63 1007.85 1007.08 1006.07 1006.44 1006.43 1006.57 1006.34 1006.97 1007.50 1007.97 1008.40 1008.76 1009.01 1009.34 1009.49 1009.93 1010.18 1010.22 1010.49 1010.77 1011.17 1011.44 1011.72 1012.11 1012.34 1012.56 1012.87 1013.24 1013.63 1013.95 1014.20 1014.51 1014.80 1014.88 1014.95 1015.03 1015.21 1015.38 1015.49 1015.69
1012.88 1012.77 1012.33 1011.92 1011.02 1010.50 1009.89 1009.10 1008.75 1008.21 1007.54 1006.49 1006.53 1007.10 1007.06 1007.23 1007.50 1007.71 1008.03 1007.89 1007.66 1008.33 1008.98 1009.25 1009.64 1009.87 1010.15 1010.50 1010.88 1011.35 1011.79 1012.09 1012.40 1012.67 1012.94 1013.21 1013.49 1013.76 1014.01 1014.21 1014.30 1014.57 1014.81 1015.04 1015.16 1015.27 1015.47 1015.64 1015.89
1012.84 1012.25 1011.96 1011.46 1010.80 1010.39 1010.17 1009.30 1008.74 1008.38 1007.30 1006.37 1006.17 1006.73 1007.09 1007.08 1007.62 1007.63 1007.74 1008.06 1008.24 1008.39 1008.67 1009.22 1009.57 1009.92 1010.29 1010.34 1010.78 1011.18 1011.63 1011.94 1012.27 1012.59 1012.90 1013.18 1013.46 1013.67 1013.91 1014.10 1014.31 1014.55 1014.67 1015.02 1015.34 1015.47 1015.43 1015.57 1015.72
1012.39 1011.74 1011.45 1010.92 1010.54 1010.25 1010.01 1008.44 1008.85 1008.19 1006.92 1006.26 1006.55 1005.91 1007.04 1007.51 1007.26 1007.60 1007.65 1007.90 1008.19 1008.23 1008.34 1008.57 1009.05 1009.56 1009.98 1010.37 1010.73 1011.08 1011.48 1011.64 1011.99 1012.32 1012.65 1013.00 1013.23 1013.39 1013.28 1013.55 1013.90 1014.05 1014.30 1014.28 1014.46 1014.81 1015.09 1015.09 1015.19
1011.15 1010.90 1010.77 1010.67 1010.33 1010.23 1009.98 1009.02 1009.00 1007.38 1006.70 1006.49 1006.36 1006.53 1006.90 1007.39 1007.44 1007.32 1007.25 1007.36 1007.74 1007.71 1007.71 1008.03 1008.45 1009.15 1009.82 1010.23 1010.56 1010.98 1011.25 1011.52 1012.02 1012.21 1012.28 1012.62 1013.01 1013.40 1013.46 1013.55 1013.72 1013.94 1013.94 1014.04 1014.11 1014.11 1014.47 1014.43 1014.44
1010.69 1010.95 1010.60 1009.87 1009.55 1009.78 1009.74 1008.88 1007.25 1007.08 1006.79 1006.20 1005.85 1006.10 1006.49 1006.87 1007.38 1006.79 1006.77 1006.78 1006.99 1007.10 1007.19 1007.60 1008.32 1008.76 1009.36 1010.08 1010.57 1011.00 1011.33 1011.66 1011.76 1011.86 1012.03 1012.35 1012.74 1013.10 1013.42 1013.84 1014.01 1013.78 1013.87 1013.96 1014.18 1014.14 1014.27 1014.44 1014.39
1010.70 1010.69 1010.30 1008.64 1009.07 1009.10 1009.40 1007.95 1006.69 1006.09 1006.61 1006.91 1006.60 1006.30 1006.66 1006.35 1006.65 1006.56 1006.49 1006.63 1006.42 1006.85 1007.11 1007.66 1008.29 1008.94 1009.50 1009.96 1010.50 1010.86 1010.87 1011.06 1011.28 1011.51 1011.75 1011.98 1012.30 1012.72 1012.98 1013.22 1013.24 1013.17 1013.37 1013.60 1013.75 1013.86 1013.96 1014.03 1013.99
1010.45 1009.98 1009.30 1008.15 1007.83 1007.98 1008.07 1007.32 1006.12 1005.44 1006.01 1005.96 1005.65 1005.89 1006.37 1006.72 1006.49 1006.25 1006.52 1006.68 1006.83 1007.15 1007.42 1007.82 1008.20 1008.80 1009.26 1009.68 1009.99 1010.32 1010.54 1010.78 1011.02 1011.28 1011.49 1011.66 1011.85 1012.08 1012.39 1012.57 1012.57 1012.58 1012.92 1013.26 1013.41 1013.44 1013.59 1013.63 1013.35
1009.85 1009.38 1008.55 1008.02 1007.18 1007.30 1007.15 1006.42 1005.36 1005.03 1005.42 1005.03 1005.20 1005.85 1006.00 1006.29 1006.28 1006.16 1006.65 1007.08 1007.21 1007.22 1007.66 1008.05 1008.32 1008.66 1009.04 1009.54 1010.10 1010.40 1010.66 1010.88 1011.05 1011.28 1011.52 1011.57 1011.66 1011.71 1011.92 1012.03 1012.15 1012.16 1012.56 1012.70 1012.85 1012.83 1012.83 1012.88 1012.69
1008.75 1008.65 1008.04 1006.88 1006.23 1006.53 1006.98 1005.88 1005.40 1005.01 1005.62 1005.28 1005.41 1005.86 1005.83 1006.30 1006.20 1006.37 1007.04 1006.99 1007.45 1007.72 1007.87 1007.97 1008.21 1008.67 1009.13 1009.80 1010.42 1010.86 1011.14 1011.20 1011.11 1011.12 1011.04 1011.21 1011.34 1011.50 1011.74 1011.98 1012.11 1012.29 1012.35 1012.14 1012.17 1012.19 1012.30 1012.19 1012.21
1008.58 1008.16 1007.63 1006.43 1005.84 1005.94 1006.42 1006.43 1005.78 1005.25 1004.91 1004.95 1005.12 1005.37 1005.91 1006.38 1006.64 1007.00 1007.18 1007.53 1007.59 1007.81 1008.08 1008.34 1008.57 1008.78 1009.22 1009.54 1010.15 1010.47 1010.93 1011.06 1011.09 1011.30 1011.13 1010.95 1011.02 1011.12 1011.34 1011.68 1011.76 1011.83 1012.01 1012.04 1011.89 1011.92 1011.72 1011.47 1011.64
1007.66 1007.35 1007.12 1006.93 1006.09 1005.98 1006.13 1006.31 1005.74 1005.02 1004.75 1004.89 1005.29 1005.58 1006.04 1006.25 1006.69 1007.16 1007.69 1007.90 1008.14 1008.32 1008.54 1008.75 1008.98 1009.26 1009.47 1009.66 1010.10 1010.59 1010.98 1011.24 1011.40 1011.40 1011.24 1011.13 1011.00 1011.03 1011.11 1011.24 1011.27 1011.30 1011.37 1011.47 1011.42 1011.40 1011.31 1010.95 1010.85
1006.68 1006.21 1006.50 1006.67 1006.82 1007.14 1006.89 1006.97 1005.94 1005.45 1005.19 1005.20 1005.59 1006.07 1006.33 1006.47 1006.84 1007.33 1007.81 1008.13 1008.55 1008.86 1008.80 1008.92 1009.12 1009.27 1009.35 1009.47 1009.99 1010.64 1011.21 1011.80 1011.63 1011.60 1011.26 1011.08 1010.95 1010.87 1010.81 1010.77 1010.86 1010.89 1010.82 1010.84 1010.69 1010.62 1010.51 1010.47 1010.16
1005.76 1005.63 1006.39 1007.05 1007.40 1007.61 1007.49 1007.75 1006.49 1006.17 1005.85 1005.82 1006.12 1006.55 1007.12 1007.41 1007.60 1007.96 1008.38 1008.65 1008.91 1009.06 1009.38 1009.56 1009.78 1009.87 1009.87 1009.96 1010.11 1010.57 1011.06 1011.09 1011.08 1011.14 1011.06 1010.88 1010.64 1010.53 1010.31 1010.26 1010.36 1010.38 1010.24 1010.12 1010.02 1009.91 1009.84 1009.68 1009.47
1005.32 1006.11 1007.27 1008.24 1008.61 1008.84 1008.14 1008.12 1007.27 1006.51 1006.15 1006.54 1006.83 1007.34 1007.74 1008.16 1008.23 1008.61 1008.85 1009.17 1009.54 1009.64 1009.98 1010.39 1010.92 1011.46 1011.32 1011.38 1011.60 1011.82 1011.82 1011.72 1011.75 1011.78 1011.78 1011.59 1011.31 1010.90 1010.40 1009.98 1009.91 1009.71 1009.57 1009.46 1009.40 1009.19 1009.10 1008.88 1008.53
1005.38 1006.42 1008.87 1009.63 1010.13 1009.85 1009.00 1008.66 1007.34 1006.69 1006.33 1006.41 1007.02 1007.77 1008.20 1008.52 1008.82 1009.00 1009.34 1009.73 1010.16 1010.57 1010.88 1011.08 1011.33 1011.81 1011.77 1011.72 1011.87 1011.98 1012.06 1011.95 1011.91 1011.95 1011.99 1011.83 1011.36 1011.00 1010.69 1010.41 1010.16 1009.65 1009.20 1008.88 1008.61 1008.43 1008.26 1008.05 1007.74
1005.43 1006.55 1008.21 1009.85 1010.82 1010.40 1009.51 1008.74 1007.31 1006.75 1006.55 1006.54 1007.23 1007.82 1008.50 1009.01 1009.61 1010.02 1010.30 1010.45 1010.68 1011.05 1011.31 1011.52 1011.74 1011.97 1011.95 1012.09 1012.11 1011.98 1011.89 1012.05 1012.06 1011.90 1011.65 1011.42 1011.11 1010.79 1010.60 1010.22 1009.75 1009.38 1009.02 1008.62 1008.23 1007.74 1007.42 1007.15 1006.83
1005.58 1006.85 1007.86 1009.55 1010.97 1010.92 1010.04 1008.71 1007.49 1007.03 1007.14 1007.25 1007.98 1008.59 1009.27 1009.89 1010.15 1010.55 1010.91 1011.11 1011.40 1011.64 1011.90 1012.04 1012.37 1012.46 1012.28 1012.16 1012.05 1011.97 1011.80 1011.75 1011.66 1011.40 1011.19 1010.90 1010.61 1010.37 1009.90 1009.62 1009.31 1008.86 1008.55 1008.20 1007.82 1007.33 1006.74 1006.24 1005.90
1005.18 1006.51 1008.27 1009.86 1011.46 1011.49 1010.39 1009.24 1008.03 1007.69 1007.79 1008.18 1009.01 1009.55 1009.94 1010.64 1011.37 1011.70 1011.99 1012.17 1012.46 1012.60 1012.66 1012.61 1012.52 1012.37 1012.23 1012.11 1011.94 1011.53 1011.41 1011.31 1011.18 1011.01 1010.77 1010.51 1010.27 1009.94 1009.57 1009.24 1008.82 1008.26 1007.75 1007.38 1007.05 1006.65 1006.08 1005.57 1005.03
1006.14 1007.06 1008.53 1009.89 1011.07 1011.37 1010.93 1009.30 1007.75 1007.47 1007.91 1008.56 1009.07 1009.96 1010.62 1011.22 1011.95 1012.26 1012.54 1012.59 1012.61 1012.63 1012.60 1012.50 1012.45 1012.44 1012.29 1012.13 1011.84 1011.61 1011.34 1011.23 1011.04 1010.81 1010.51 1010.25 1009.87 1009.54 1009.17 1008.84 1008.36 1007.70 1007.15 1006.73 1006.18 1005.72 1005.30 1004.75 1004.22
1006.80 1007.47 1008.56 1010.01 1011.41 1011.62 1011.10 1009.28 1007.80 1007.55 1008.18 1008.82 1009.78 1010.38 1011.01 1011.50 1011.91 1012.41 1012.71 1012.87 1012.98 1012.99 1012.93 1012.90 1012.71 1012.48 1012.27 1011.89 1011.64 1011.39 1011.22 1010.85 1010.41 1010.03 1009.61 1009.24 1009.00 1008.82 1008.66 1008.33 1007.72 1007.16 1006.66 1006.06 1005.33 1004.65 1004.13 1003.87 1003.33
Wind_Speed
7 6 1 5 4 5 4 6 2 6 4 0 4 2 6 2 3 6 2 4 14 14 12 13 16 18 17 18 18 17 16 17 18 18 18 18 17 17 15 14 13 12 12 12 12 13 13 13 13
3 1 4 3 5 1 6 4 6 5 5 10 8 2 2 2 2 5 6 8 13 15 10 11 15 17 17 18 18 18 17 16 17 17 17 17 17 16 15 14 13 12 12 12 12 12 12 12 12
2 3 4 4 4 7 5 5 6 1 8 5 5 1 0 1 1 7 6 14 14 14 10 10 14 16 16 18 18 18 17 17 17 17 16 16 15 14 13 12 11 11 11 11 11 11 10 9 10
3 4 5 4 8 6 6 7 5 6 8 6 3 5 2 4 8 7 13 15 14 13 10 14 14 15 15 17 18 18 18 17 16 17 17 15 13 12 11 11 10 10 10 10 11 9 8 9 9
4 3 2 2 8 4 5 6 6 10 7 5 2 4 1 4 8 14 14 13 15 14 9 11 15 15 17 17 17 17 17 16 16 16 16 16 14 12 11 10 10 9 9 10 10 9 9 9 9
4 4 2 7 7 4 4 6 5 6 7 2 4 3 2 4 4 9 13 14 11 14 12 9 14 15 16 17 17 16 16 16 16 15 15 14 14 13 12 10 9 8 8 8 9 9 9 9 9
7 5 6 5 5 11 4 4 4 6 5 5 1 2 6 2 6 6 7 7 9 8 12 10 11 12 16 16 16 17 16 16 15 15 15 14 13 12 12 11 10 9 8 8 8 8 8 8 8
6 5 6 6 6 11 3 4 5 6 2 3 2 2 6 2 9 9 8 7 7 8 10 11 9 9 9 10 17 17 17 16 16 15 15 15 14 13 12 11 11 11 10 10 9 9 9 9 10
4 2 4 7 8 5 3 5 5 6 5 2 3 5 5 13 10 8 8 4 6 5 6 9 10 8 8 9 11 15 18 17 16 14 14 10 5 6 9 8 9 9 9 9 9 9 9 10 11
4 5 9 8 4 5 5 2 6 6 9 4 4 6 5 12 12 12 10 9 9 10 8 8 7 6 5 5 5 5 6 6 5 6 7 6 5 5 6 7 9 9 9 9 10 10 10 10 3
2 3 5 2 5 6 5 6 2 3 4 7 4 6 1 3 4 6 7 10 15 10 8 10 10 8 8 5 3 2 2 2 2 3 3 2 2 2 3 2 3 3 7 3 4 3 3 4 3
2 6 5 6 10 7 4 5 5 6 9 7 3 2 5 7 7 8 8 7 7 9 10 8 8 8 5 3 4 4 4 4 4 5 5 4 3 4 4 3 3 3 2 2 2 2 3 3 4
4 7 4 8 11 9 7 20 5 9 13 8 7 10 1 10 8 7 7 5 5 8 11 12 11 10 8 5 4 4 4 5 6 6 8 7 6 6 6 5 4 5 4 5 5 5 5 5 5
7 12 16 10 9 3 7 8 4 11 10 1 3 10 6 6 10 4 7 10 10 11 11 11 13 10 8 7 7 5 3 4 4 4 5 8 5 4 5 4 4 4 4 4 5 6 6 7 6
4 5 3 13 16 7 7 9 19 11 10 4 5 13 15 15 8 10 8 9 10 10 8 11 9 9 9 8 5 5 4 4 5 5 5 7 6 5 4 2 4 4 3 4 4 4 4 5 5
4 4 3 9 7 9 12 13 10 12 12 9 7 8 12 17 10 10 9 7 6 5 8 6 7 6 7 7 5 5 6 6 6 6 6 8 8 7 5 5 5 4 4 4 5 6 5 5 5
4 4 7 9 11 6 14 7 10 11 10 14 17 13 15 9 17 18 5 1 4 3 6 7 7 9 9 7 5 5 5 4 4 4 5 7 8 9 8 6 6 6 5 6 6 7 5 8 6
4 4 4 5 3 9 10 11 14 13 12 20 17 18 14 18 25 16 6 5 2 5 7 7 5 7 7 5 3 2 2 2 3 3 3 4 4 6 5 5 6 6 5 6 5 9 6 8 9
3 3 5 5 6 7 10 6 11 10 8 7 10 12 16 13 4 5 7 7 7 5 7 7 9 7 7 3 4 4 3 2 1 3 5 5 5 5 4 4 4 4 6 8 8 7 9 8 6
6 4 7 9 2 4 8 10 10 5 9 10 13 9 7 7 6 5 6 6 4 5 5 7 7 7 5 4 3 4 3 2 2 1 1 2 2 2 3 4 4 5 5 7 8 7 7 7 6
7 7 5 6 2 2 3 5 5 5 3 5 4 5 8 10 9 7 7 5 6 6 7 7 8 8 7 7 4 3 3 3 3 2 1 2 2 3 4 5 5 5 5 6 7 7 10 10 7
7 7 6 5 3 4 2 4 4 3 3 2 2 5 7 8 6 6 8 7 7 6 6 8 7 7 5 6 4 4 4 3 3 3 2 4 4 5 5 5 5 5 5 7 8 7 9 9 12
9 4 3 2 4 3 5 5 6 2 2 1 3 4 4 4 6 8 8 6 5 7 7 6 5 4 4 5 6 6 4 4 3 3 4 4 5 6 6 6 6 6 5 7 8 9 9 9 11
6 6 8 5 3 2 2 6 7 2 1 2 2 5 6 7 8 7 5 7 6 4 3 3 6 7 7 6 5 5 6 6 4 5 4 6 6 7 7 6 6 7 6 7 8 9 10 10 10
6 7 3 3 3 6 4 3 9 2 4 5 9 8 8 8 7 7 8 3 5 6 5 5 7 7 7 8 7 6 6 6 4 4 3 4 3 4 7 6 8 7 8 8 8 8 9 11 10
4 5 8 7 5 4 3 4 6 5 7 5 6 8 6 7 5 6 4 5 6 7 7 8 7 6 7 6 5 3 3 2 2 2 3 3 3 4 6 8 8 10 11 10 10 7 8 10 10
4 2 4 8 3 3 3 4 5 4 5 8 8 7 5 6 5 6 6 7 7 7 7 7 5 3 3 4 4 4 3 3 5 6 5 4 6 6 7 7 9 9 10 11 11 8 10 9 10
3 6 4 4 5 4 4 3 5 3 6 5 6 4 3 5 7 6 6 7 5 5 3 3 3 3 3 5 5 5 6 5 6 6 8 7 9 9 9 11 10 10 10 10 10 10 11 11 9
2 2 6 6 4 5 2 6 5 7 5 8 6 4 6 7 7 6 5 4 4 3 4 4 5 5 5 6 6 7 7 6 6 6 7 7 8 8 9 11 12 13 12 11 11 11 12 13 10
1 3 5 5 5 2 4 7 4 8 6 8 7 8 7 8 8 6 4 2 3 4 4 4 4 5 6 6 7 7 6 8 9 8 8 6 7 7 9 11 11 12 13 13 14 13 11 13 12
Wind_Direction
305 302 65 33 40 61 269 257 244 268 276 97 245 244 273 77 184 207 268 135 130 141 151 151 151 146 142 138 132 129 125 124 124 123 124 127 131 134 138 141 146 152 155 153 151 148 144 137 134
301 332 43 81 100 71 267 241 244 208 278 316 310 229 15 331 148 111 118 137 142 143 152 148 152 145 143 138 134 133 130 128 126 127 131 133 138 142 144 146 150 155 159 159 156 152 146 144 146
306 46 91 129 154 190 228 220 262 329 293 268 298 84 183 240 61 151 123 134 136 145 144 149 148 143 144 140 137 135 132 134 134 134 137 140 143 145 145 145 150 159 162 162 161 158 154 154 155
107 25 34 113 225 241 217 278 326 344 338 277 264 281 52 336 157 140 129 137 133 147 151 153 149 146 145 145 141 139 139 140 141 140 142 144 144 142 140 145 153 163 166 169 168 163 168 169 168
41 65 112 191 248 238 243 261 328 322 268 259 233 264 352 16 89 126 134 144 139 151 154 147 151 153 149 151 148 146 145 145 146 146 148 147 145 145 147 153 158 168 174 176 178 179 183 185 187
57 98 119 219 249 244 240 271 314 282 286 314 61 325 300 124 107 146 147 149 147 150 150 148 161 161 157 157 156 153 153 153 153 153 154 154 153 155 158 161 169 174 181 186 191 197 202 207 208
125 106 204 195 234 267 233 276 257 262 317 11 12 340 301 179 97 135 123 114 128 139 153 155 166 173 166 162 162 160 162 162 161 161 160 162 163 166 168 170 177 181 188 195 204 214 224 227 232
117 121 175 209 191 254 320 318 281 245 240 319 162 268 266 219 123 113 99 95 109 141 164 171 173 176 172 169 169 170 169 169 170 170 169 170 171 174 179 183 189 192 195 201 209 220 230 238 245
129 91 204 198 184 253 324 11 322 289 249 96 74 300 282 120 112 105 105 98 137 160 171 179 185 184 176 174 180 178 177 176 177 175 175 168 168 182 191 195 203 206 208 214 220 228 239 246 250
140 164 203 193 195 221 262 235 339 358 339 346 19 6 22 137 156 158 165 173 179 184 190 183 189 189 167 180 175 174 181 179 182 180 175 171 170 180 183 197 211 223 226 224 224 230 236 248 248
168 210 176 258 207 212 241 272 198 266 274 262 92 351 130 171 209 181 197 192 189 188 187 189 189 186 173 178 144 135 122 116 132 170 172 163 156 182 196 187 194 201 234 243 257 267 266 276 293
233 221 179 232 244 259 257 272 193 226 242 216 150 109 310 174 217 203 194 195 180 174 192 185 189 188 185 154 159 143 157 169 189 193 175 169 179 181 195 196 197 198 179 244 270 276 274 280 275
228 238 227 227 235 247 244 250 259 234 245 269 13 321 62 291 216 234 217 204 193 194 189 192 185 187 182 163 148 157 166 176 203 201 206 213 212 211 194 195 192 199 198 207 199 210 237 242 251
209 223 239 241 252 236 240 273 229 227 224 141 137 291 343 315 285 216 197 212 199 205 203 191 194 182 172 179 162 163 153 171 176 187 193 218 216 229 227 216 219 236 220 220 221 221 231 238 235
227 247 222 235 238 236 181 269 244 234 266 156 237 251 288 277 282 259 222 208 200 215 203 196 184 171 171 177 149 140 145 175 192 207 195 207 213 209 216 195 235 228 225 234 238 257 247 260 251
222 145 219 256 192 235 166 253 255 234 201 194 184 235 273 274 268 272 264 229 229 187 189 148 165 143 135 152 148 162 186 189 194 193 198 204 213 207 202 203 223 216 214 219 228 233 239 248 242
253 220 221 303 182 175 183 233 251 246 195 205 217 213 203 259 276 279 245 312 331 130 143 143 147 158 156 157 162 178 190 183 196 192 197 195 204 204 208 217 223 207 216 223 229 241 223 262 253
232 243 240 229 303 187 185 222 221 251 197 206 189 207 196 206 229 241 185 157 174 95 113 124 125 146 151 145 152 140 150 187 182 208 224 225 225 214 207 227 227 219 217 232 217 234 213 237 253
238 260 277 253 216 136 219 222 224 226 201 183 194 208 207 219 183 180 185 168 141 145 138 139 132 135 134 123 108 93 108 78 77 207 223 213 216 219 219 238 250 212 225 239 239 235 236 244 244
240 266 270 275 274 150 150 232 253 233 208 191 197 205 201 172 162 156 164 178 184 144 124 115 100 106 94 99 120 128 163 175 140 121 80 144 168 220 227 231 240 239 246 251 248 232 246 242 221
225 193 237 247 341 103 66 321 334 230 142 128 119 140 164 174 156 155 157 134 106 105 112 111 114 116 112 113 112 84 54 38 25 349 317 186 187 221 228 238 235 242 232 254 256 242 240 262 251
252 196 217 261 140 210 61 261 310 347 107 81 104 123 172 168 145 133 134 115 114 115 114 114 120 124 131 141 105 117 151 172 222 205 238 271 268 253 235 238 242 239 236 244 253 253 250 253 268
229 153 148 95 107 85 333 76 252 325 110 321 346 75 111 93 107 110 115 119 140 141 149 142 133 152 162 164 170 161 174 203 197 218 249 262 273 252 256 238 237 237 232 243 248 252 248 249 261
150 74 51 49 70 69 225 125 296 268 204 178 104 120 124 124 126 120 116 137 158 145 123 68 50 30 41 47 32 20 357 359 343 341 331 325 321 313 286 257 243 243 238 235 242 246 247 250 251
75 83 14 356 10 216 339 64 233 288 303 215 153 152 160 150 139 147 159 147 54 58 57 70 80 48 45 57 51 45 31 19 353 333 307 303 282 281 278 282 281 273 259 247 239 239 246 250 251
151 153 151 190 190 231 3 225 252 287 268 164 143 147 141 150 77 67 87 89 66 66 71 77 71 61 42 46 39 30 38 354 297 270 279 276 268 278 283 283 279 277 275 272 266 253 244 247 251
189 123 162 103 30 75 229 273 323 29 59 126 144 145 130 80 116 99 77 78 79 69 64 74 73 61 32 0 336 326 309 294 285 281 260 265 274 280 281 282 278 280 280 276 272 263 253 245 248
144 153 74 11 140 221 283 270 233 175 164 151 65 65 99 97 75 86 92 104 101 100 102 67 36 11 335 324 312 303 304 281 272 272 275 270 277 276 276 278 276 275 275 275 274 268 258 249 247
65 90 58 104 123 155 172 256 225 210 158 135 145 77 105 96 89 76 71 67 68 39 18 11 4 340 323 305 291 285 291 281 276 256 250 252 261 263 275 282 281 279 274 271 270 265 267 260 254
17 160 128 140 216 213 154 259 334 146 146 135 136 137 136 136 135 123 107 68 18 3 352 338 315 306 285 284 288 289 281 293 296 284 288 275 265 267 269 272 280 286 285 279 272 268 270 271 262